Time,TemperatureF,DewpointF,PressureIn,WindDirection,WindDirectionDegrees,WindSpeedMPH,WindSpeedGustMPH,Humidity,HourlyPrecipIn,Conditions,Clouds,dailyrainin,SolarRadiationWatts/m^2,SoftwareType,DateUTC
2013-05-26 00:01:00,49.8,34.7,30.14,WNW,292,0.0,0.0,56,0.00,FEW,,0.00,0.0,WeatherDisplay:10.37,2013-05-26 04:01:00,
2013-05-26 00:02:00,49.6,34.5,30.14,WNW,292,0.0,0.0,56,0.00,FEW,,0.00,0.0,WeatherDisplay:10.37,2013-05-26 04:02:00,
2013-05-26 00:03:00,49.4,34.3,30.14,WNW,292,0.1,1.5,56,0.00,FEW,,0.00,0.0,WeatherDisplay:10.37,2013-05-26 04:03:00,
2013-05-26 00:08:00,48.9,34.3,30.14,WNW,292,0.2,1.5,57,0.00,FEW,,0.00,0.0,WeatherDisplay:10.37,2013-05-26 04:08:00,
2013-05-26 00:13:00,49.1,34.9,30.14,WNW,293,2.2,3.5,58,0.00,SCT,,0.00,0.0,WeatherDisplay:10.37,2013-05-26 04:13:00,
2013-05-26 00:18:00,49.6,35.0,30.14,NW,306,4.5,4.6,57,0.00,SCT,,0.00,0.0,WeatherDisplay:10.37,2013-05-26 04:18:00,
2013-05-26 00:23:00,49.9,34.8,30.14,NW,310,4.9,5.8,56,0.00,SCT,,0.00,0.0,WeatherDisplay:10.37,2013-05-26 04:23:00,
2013-05-26 00:28:00,50.4,35.3,30.14,NW,313,2.1,4.6,56,0.00,SCT,,0.00,0.0,WeatherDisplay:10.37,2013-05-26 04:28:00,
2013-05-26 00:33:00,50.5,34.9,30.14,NW,311,4.1,9.0,55,0.00,SCT,,0.00,0.0,WeatherDisplay:10.37,2013-05-26 04:33:00,
2013-05-26 00:38:00,51.1,35.0,30.14,WNW,301,2.9,5.8,54,0.00,SCT,,0.00,0.0,WeatherDisplay:10.37,2013-05-26 04:38:00,
2013-05-26 00:43:00,51.3,35.2,30.14,NW,323,0.1,4.6,54,0.00,SCT,,0.00,0.0,WeatherDisplay:10.37,2013-05-26 04:43:00,
2013-05-26 00:48:00,51.3,34.7,30.14,WNW,290,0.2,4.6,53,0.00,SCT,,0.00,0.0,WeatherDisplay:10.37,2013-05-26 04:48:00,
2013-05-26 00:53:00,51.3,34.7,30.14,WNW,291,0.0,0.0,53,0.00,SCT,,0.00,0.0,WeatherDisplay:10.37,2013-05-26 04:53:00,
2013-05-26 00:58:00,51.1,34.5,30.15,WNW,291,0.7,1.2,53,0.00,SCT,,0.00,0.0,WeatherDisplay:10.37,2013-05-26 04:58:00,
2013-05-26 01:03:00,51.0,34.5,30.14,WNW,291,0.0,0.0,53,0.00,FEW,,0.00,0.0,WeatherDisplay:10.37,2013-05-26 05:03:00,
2013-05-26 01:08:00,50.7,34.2,30.14,WNW,291,0.0,0.0,53,0.00,FEW,,0.00,0.0,WeatherDisplay:10.37,2013-05-26 05:08:00,
2013-05-26 01:13:00,50.2,34.2,30.14,WNW,291,0.0,0.0,54,0.00,FEW,,0.00,0.0,WeatherDisplay:10.37,2013-05-26 05:13:00,
2013-05-26 01:18:00,49.8,34.3,30.14,WNW,291,0.0,0.0,55,0.00,FEW,,0.00,0.0,WeatherDisplay:10.37,2013-05-26 05:18:00,
2013-05-26 01:23:00,49.4,33.9,30.14,WNW,291,0.0,0.0,55,0.00,FEW,,0.00,0.0,WeatherDisplay:10.37,2013-05-26 05:23:00,
2013-05-26 01:28:00,48.8,34.2,30.14,WNW,291,0.0,0.0,57,0.00,FEW,,0.00,0.0,WeatherDisplay:10.37,2013-05-26 05:28:00,
2013-05-26 01:33:00,47.9,34.3,30.14,WNW,291,0.0,0.0,59,0.00,FEW,,0.00,0.0,WeatherDisplay:10.37,2013-05-26 05:33:00,
2013-05-26 01:38:00,47.3,34.5,30.14,WNW,291,0.0,0.0,61,0.00,FEW,,0.00,0.0,WeatherDisplay:10.37,2013-05-26 05:38:00,
2013-05-26 01:43:00,46.7,34.4,30.15,WNW,291,0.0,0.0,62,0.00,FEW,,0.00,0.0,WeatherDisplay:10.37,2013-05-26 05:43:00,
2013-05-26 01:48:00,46.2,34.7,30.15,WNW,291,0.0,0.0,64,0.00,FEW,,0.00,0.0,WeatherDisplay:10.37,2013-05-26 05:48:00,
2013-05-26 01:53:00,45.8,34.3,30.15,WNW,291,0.0,0.0,64,0.00,FEW,,0.00,0.0,WeatherDisplay:10.37,2013-05-26 05:53:00,
2013-05-26 01:58:00,45.4,33.9,30.15,WNW,291,0.0,0.0,64,0.00,FEW,,0.00,0.0,WeatherDisplay:10.37,2013-05-26 05:58:00,
2013-05-26 02:03:00,44.9,34.2,30.14,WNW,291,0.0,0.0,66,0.00,CLR,,0.00,0.0,WeatherDisplay:10.37,2013-05-26 06:03:00,
2013-05-26 02:08:00,44.5,34.2,30.15,WNW,291,0.0,0.0,67,0.00,CLR,,0.00,0.0,WeatherDisplay:10.37,2013-05-26 06:08:00,
2013-05-26 02:13:00,44.2,34.3,30.15,WNW,291,0.0,0.0,68,0.00,CLR,,0.00,0.0,WeatherDisplay:10.37,2013-05-26 06:13:00,
2013-05-26 02:18:00,43.8,34.6,30.15,WNW,291,0.0,0.0,70,0.00,CLR,,0.00,0.0,WeatherDisplay:10.37,2013-05-26 06:18:00,
2013-05-26 02:23:00,43.5,34.4,30.15,WNW,291,0.0,1.2,70,0.00,CLR,,0.00,0.0,WeatherDisplay:10.37,2013-05-26 06:23:00,
2013-05-26 02:28:00,44.1,34.9,30.15,WNW,291,1.3,3.0,70,0.00,CLR,,0.00,0.0,WeatherDisplay:10.37,2013-05-26 06:28:00,
2013-05-26 02:33:00,45.1,35.5,30.14,WNW,291,1.0,3.5,69,0.00,CLR,,0.00,0.0,WeatherDisplay:10.37,2013-05-26 06:33:00,
2013-05-26 02:38:00,46.0,35.3,30.14,WNW,291,0.0,0.0,66,0.00,CLR,,0.00,0.0,WeatherDisplay:10.37,2013-05-26 06:38:00,
2013-05-26 02:43:00,46.5,35.4,30.14,WNW,291,0.0,1.2,65,0.00,CLR,,0.00,0.0,WeatherDisplay:10.37,2013-05-26 06:43:00,
2013-05-26 02:48:00,47.0,35.0,30.15,WNW,291,1.2,3.5,63,0.00,CLR,,0.00,0.0,WeatherDisplay:10.37,2013-05-26 06:48:00,
2013-05-26 02:53:00,47.1,35.1,30.15,WNW,291,0.1,1.5,63,0.00,CLR,,0.00,0.0,WeatherDisplay:10.37,2013-05-26 06:53:00,
2013-05-26 02:58:00,47.1,34.7,30.15,WNW,291,0.0,0.0,62,0.00,CLR,,0.00,0.0,WeatherDisplay:10.37,2013-05-26 06:58:00,
2013-05-26 03:03:00,46.8,34.9,30.15,WNW,291,0.0,0.0,63,0.00,CLR,,0.00,0.0,WeatherDisplay:10.37,2013-05-26 07:03:00,
2013-05-26 03:08:00,46.7,34.8,30.15,WNW,291,0.0,0.0,63,0.00,CLR,,0.00,0.0,WeatherDisplay:10.37,2013-05-26 07:08:00,
2013-05-26 03:13:00,46.2,34.3,30.15,WNW,291,0.0,0.0,63,0.00,FEW,,0.00,0.0,WeatherDisplay:10.37,2013-05-26 07:13:00,
2013-05-26 03:18:00,46.0,34.5,30.15,WNW,291,0.0,0.0,64,0.00,FEW,,0.00,0.0,WeatherDisplay:10.37,2013-05-26 07:18:00,
2013-05-26 03:23:00,45.8,34.3,30.14,WNW,291,0.0,0.0,64,0.00,FEW,,0.00,0.0,WeatherDisplay:10.37,2013-05-26 07:23:00,
2013-05-26 03:28:00,46.0,34.5,30.15,WNW,291,0.0,0.0,64,0.00,FEW,,0.00,0.0,WeatherDisplay:10.37,2013-05-26 07:28:00,
2013-05-26 03:33:00,46.1,34.6,30.15,WNW,291,0.0,0.0,64,0.00,FEW,,0.00,0.0,WeatherDisplay:10.37,2013-05-26 07:33:00,
2013-05-26 03:38:00,46.1,34.6,30.15,WNW,291,0.0,0.0,64,0.00,FEW,,0.00,0.0,WeatherDisplay:10.37,2013-05-26 07:38:00,
2013-05-26 03:43:00,46.1,34.6,30.15,WNW,291,0.0,0.0,64,0.00,FEW,,0.00,0.0,WeatherDisplay:10.37,2013-05-26 07:43:00,
2013-05-26 03:48:00,45.8,34.3,30.14,WNW,291,0.0,0.0,64,0.00,FEW,,0.00,0.0,WeatherDisplay:10.37,2013-05-26 07:48:00,
2013-05-26 03:53:00,45.5,34.4,30.14,WNW,291,0.3,1.5,65,0.00,FEW,,0.00,0.0,WeatherDisplay:10.37,2013-05-26 07:53:00,
2013-05-26 03:58:00,45.5,34.4,30.14,WNW,291,0.0,0.0,65,0.00,FEW,,0.00,0.0,WeatherDisplay:10.37,2013-05-26 07:58:00,
2013-05-26 04:03:00,45.7,34.6,30.14,WNW,291,1.1,3.5,65,0.00,FEW,,0.00,0.0,WeatherDisplay:10.37,2013-05-26 08:03:00,
2013-05-26 04:08:00,45.7,34.6,30.14,WNW,291,0.0,0.0,65,0.00,FEW,,0.00,0.0,WeatherDisplay:10.37,2013-05-26 08:08:00,
2013-05-26 04:13:00,45.7,34.6,30.15,WNW,291,0.0,3.5,65,0.00,CLR,,0.00,0.0,WeatherDisplay:10.37,2013-05-26 08:13:00,
2013-05-26 04:18:00,45.8,34.7,30.14,WNW,291,0.6,1.5,65,0.00,CLR,,0.00,0.0,WeatherDisplay:10.37,2013-05-26 08:18:00,
2013-05-26 04:23:00,46.2,34.7,30.14,WNW,291,0.0,0.0,64,0.00,CLR,,0.00,0.0,WeatherDisplay:10.37,2013-05-26 08:23:00,
2013-05-26 04:28:00,46.4,34.5,30.15,WNW,291,0.0,0.0,63,0.00,CLR,,0.00,0.0,WeatherDisplay:10.37,2013-05-26 08:28:00,
2013-05-26 04:33:00,45.2,34.1,30.15,North,11,5.7,5.8,65,0.00,CLR,,0.00,0.0,WeatherDisplay:10.37,2013-05-26 08:33:00,
2013-05-26 04:38:00,43.9,34.7,30.15,ENE,60,0.5,3.5,70,0.00,CLR,,0.00,0.0,WeatherDisplay:10.37,2013-05-26 08:38:00,
2013-05-26 04:43:00,43.2,34.8,30.16,ENE,60,0.0,0.0,72,0.00,CLR,,0.00,0.0,WeatherDisplay:10.37,2013-05-26 08:43:00,
2013-05-26 04:48:00,42.8,35.1,30.16,ENE,60,0.0,0.0,74,0.00,CLR,,0.00,0.0,WeatherDisplay:10.37,2013-05-26 08:48:00,
2013-05-26 04:53:00,42.5,35.5,30.16,ENE,60,0.0,0.0,76,0.00,CLR,,0.00,0.0,WeatherDisplay:10.37,2013-05-26 08:53:00,
2013-05-26 04:58:00,42.2,35.8,30.16,ENE,60,0.0,0.0,78,0.00,CLR,,0.00,0.0,WeatherDisplay:10.37,2013-05-26 08:58:00,
2013-05-26 05:03:00,41.8,35.8,30.16,ENE,60,0.0,0.0,79,0.00,CLR,,0.00,0.0,WeatherDisplay:10.37,2013-05-26 09:03:00,
2013-05-26 05:08:00,41.6,35.9,30.16,ENE,60,0.0,0.0,80,0.00,CLR,,0.00,0.0,WeatherDisplay:10.37,2013-05-26 09:08:00,
2013-05-26 05:13:00,41.2,35.5,30.16,ENE,60,0.0,0.0,80,0.00,FEW,,0.00,0.0,WeatherDisplay:10.37,2013-05-26 09:13:00,
2013-05-26 05:18:00,41.1,35.7,30.16,ENE,60,0.0,0.0,81,0.00,FEW,,0.00,0.0,WeatherDisplay:10.37,2013-05-26 09:18:00,
2013-05-26 05:23:00,41.2,35.8,30.16,ENE,60,0.0,0.0,81,0.00,FEW,,0.00,0.0,WeatherDisplay:10.37,2013-05-26 09:23:00,
2013-05-26 05:28:00,41.3,35.9,30.16,ENE,60,0.0,0.0,81,0.00,FEW,,0.00,0.0,WeatherDisplay:10.37,2013-05-26 09:28:00,
2013-05-26 05:33:00,41.3,35.6,30.16,ENE,60,0.0,0.0,80,0.00,FEW,,0.00,0.0,WeatherDisplay:10.37,2013-05-26 09:33:00,
2013-05-26 05:38:00,41.3,35.6,30.16,ENE,60,0.0,0.0,80,0.00,FEW,,0.00,0.0,WeatherDisplay:10.37,2013-05-26 09:38:00,
2013-05-26 05:43:00,41.2,35.5,30.16,ENE,60,0.0,0.0,80,0.00,FEW,,0.00,0.0,WeatherDisplay:10.37,2013-05-26 09:43:00,
2013-05-26 05:48:00,41.1,35.4,30.16,ENE,60,0.0,0.0,80,0.00,FEW,,0.00,7.0,WeatherDisplay:10.37,2013-05-26 09:48:00,
2013-05-26 05:53:00,40.9,35.2,30.17,ENE,60,0.0,0.0,80,0.00,FEW,,0.00,11.0,WeatherDisplay:10.37,2013-05-26 09:53:00,
2013-05-26 05:58:00,40.8,35.4,30.17,ENE,60,0.0,0.0,81,0.00,FEW,,0.00,14.0,WeatherDisplay:10.37,2013-05-26 09:58:00,
2013-05-26 06:03:00,40.6,35.5,30.17,ENE,61,0.0,0.0,82,0.00,BKN,,0.00,19.0,WeatherDisplay:10.37,2013-05-26 10:03:00,
2013-05-26 06:08:00,40.3,35.2,30.17,ENE,61,0.0,0.0,82,0.00,BKN,,0.00,25.0,WeatherDisplay:10.37,2013-05-26 10:08:00,
2013-05-26 06:13:00,40.1,35.0,30.17,ENE,61,0.0,0.0,82,0.00,BKN,,0.00,28.0,WeatherDisplay:10.37,2013-05-26 10:13:00,
2013-05-26 06:18:00,39.9,35.2,30.17,ENE,61,0.0,0.0,83,0.00,BKN,,0.00,33.0,WeatherDisplay:10.37,2013-05-26 10:18:00,
2013-05-26 06:23:00,39.8,35.1,30.17,ENE,61,0.0,0.0,83,0.00,BKN,,0.00,37.0,WeatherDisplay:10.37,2013-05-26 10:23:00,
2013-05-26 06:28:00,39.8,35.4,30.18,ENE,61,0.0,0.0,84,0.00,BKN,,0.00,44.0,WeatherDisplay:10.37,2013-05-26 10:28:00,
2013-05-26 06:33:00,39.9,35.8,30.18,ENE,61,0.0,0.0,85,0.00,BKN,,0.00,49.0,WeatherDisplay:10.37,2013-05-26 10:33:00,
2013-05-26 06:38:00,40.2,36.3,30.18,ENE,61,0.0,0.0,86,0.00,BKN,,0.00,51.0,WeatherDisplay:10.37,2013-05-26 10:38:00,
2013-05-26 06:43:00,40.3,36.4,30.18,ENE,61,0.0,0.0,86,0.00,BKN,,0.00,49.0,WeatherDisplay:10.37,2013-05-26 10:43:00,
2013-05-26 06:48:00,40.8,37.2,30.18,ENE,61,0.0,0.0,87,0.00,BKN,,0.00,130.0,WeatherDisplay:10.37,2013-05-26 10:48:00,
2013-05-26 06:53:00,41.6,38.0,30.18,ENE,61,0.0,0.0,87,0.00,BKN,,0.00,137.0,WeatherDisplay:10.37,2013-05-26 10:53:00,
2013-05-26 06:58:00,42.5,39.2,30.18,ENE,61,0.0,0.0,88,0.00,BKN,,0.00,149.0,WeatherDisplay:10.37,2013-05-26 10:58:00,
2013-05-26 07:03:00,43.3,40.0,30.18,ENE,61,0.0,0.0,88,0.00,BKN,,0.00,162.0,WeatherDisplay:10.37,2013-05-26 11:03:00,
2013-05-26 07:08:00,44.3,41.0,30.18,ENE,61,0.0,0.0,88,0.00,BKN,,0.00,181.0,WeatherDisplay:10.37,2013-05-26 11:08:00,
2013-05-26 07:13:00,45.7,42.1,30.18,ENE,61,0.0,1.5,87,0.00,BKN,,0.00,202.0,WeatherDisplay:10.37,2013-05-26 11:13:00,
2013-05-26 07:18:00,47.3,42.4,30.18,ENE,61,0.0,0.0,83,0.00,BKN,,0.00,221.0,WeatherDisplay:10.37,2013-05-26 11:18:00,
2013-05-26 07:23:00,48.8,41.9,30.18,ENE,61,0.1,1.2,77,0.00,BKN,,0.00,239.0,WeatherDisplay:10.37,2013-05-26 11:23:00,
2013-05-26 07:28:00,49.8,40.8,30.18,ENE,61,0.1,1.2,71,0.00,BKN,,0.00,258.0,WeatherDisplay:10.37,2013-05-26 11:28:00,
2013-05-26 07:33:00,50.8,39.5,30.18,ENE,61,0.0,1.5,65,0.00,BKN,,0.00,274.0,WeatherDisplay:10.37,2013-05-26 11:33:00,
2013-05-26 07:38:00,51.4,38.4,30.18,ENE,61,0.3,1.2,61,0.00,BKN,,0.00,288.0,WeatherDisplay:10.37,2013-05-26 11:38:00,
2013-05-26 07:43:00,51.9,39.3,30.18,ENE,61,0.0,0.0,62,0.00,BKN,,0.00,306.0,WeatherDisplay:10.37,2013-05-26 11:43:00,
2013-05-26 07:48:00,52.2,39.1,30.18,ENE,61,1.0,3.5,61,0.00,BKN,,0.00,322.0,WeatherDisplay:10.37,2013-05-26 11:48:00,
2013-05-26 07:53:00,52.3,39.7,30.19,ENE,60,0.0,1.5,62,0.00,BKN,,0.00,338.0,WeatherDisplay:10.37,2013-05-26 11:53:00,
2013-05-26 07:58:00,52.6,39.5,30.18,ENE,60,0.1,1.2,61,0.00,BKN,,0.00,355.0,WeatherDisplay:10.37,2013-05-26 11:58:00,
2013-05-26 08:03:00,53.2,40.5,30.19,ENE,59,0.3,3.0,62,0.00,SCT,,0.00,371.0,WeatherDisplay:10.37,2013-05-26 12:03:00,
2013-05-26 08:08:00,53.5,39.5,30.19,NE,54,0.7,3.0,59,0.00,SCT,,0.00,388.0,WeatherDisplay:10.37,2013-05-26 12:08:00,
2013-05-26 08:13:00,53.8,38.9,30.19,NW,316,4.4,6.0,57,0.00,SCT,,0.00,404.0,WeatherDisplay:10.37,2013-05-26 12:13:00,
2013-05-26 08:18:00,54.2,39.3,30.19,NW,317,5.2,9.2,57,0.00,SCT,,0.00,417.0,WeatherDisplay:10.37,2013-05-26 12:18:00,
2013-05-26 08:23:00,54.5,38.7,30.19,NNW,343,8.3,10.5,55,0.00,SCT,,0.00,434.0,WeatherDisplay:10.37,2013-05-26 12:23:00,
2013-05-26 08:28:00,54.8,38.0,30.19,NNW,346,7.3,10.4,53,0.00,SCT,,0.00,448.0,WeatherDisplay:10.37,2013-05-26 12:28:00,
2013-05-26 08:33:00,54.8,38.0,30.19,NNW,340,6.5,9.2,53,0.00,SCT,,0.00,464.0,WeatherDisplay:10.37,2013-05-26 12:33:00,
2013-05-26 08:38:00,55.3,38.4,30.19,WNW,297,3.4,5.8,53,0.00,SCT,,0.00,478.0,WeatherDisplay:10.37,2013-05-26 12:38:00,
2013-05-26 08:43:00,55.7,38.8,30.19,WNW,297,8.9,9.2,53,0.00,SCT,,0.00,494.0,WeatherDisplay:10.37,2013-05-26 12:43:00,
2013-05-26 08:48:00,55.6,36.2,30.19,NW,306,11.8,15.0,48,0.00,SCT,,0.00,510.0,WeatherDisplay:10.37,2013-05-26 12:48:00,
2013-05-26 08:53:00,55.6,36.7,30.19,NW,316,10.1,13.8,49,0.00,SCT,,0.00,526.0,WeatherDisplay:10.37,2013-05-26 12:53:00,
2013-05-26 08:58:00,55.7,37.3,30.19,NW,309,9.3,10.4,50,0.00,SCT,,0.00,541.0,WeatherDisplay:10.37,2013-05-26 12:58:00,
2013-05-26 09:03:00,56.3,37.9,30.19,North,360,15.4,18.4,50,0.00,SCT,,0.00,557.0,WeatherDisplay:10.37,2013-05-26 13:03:00,
2013-05-26 09:08:00,56.2,37.8,30.19,NW,306,4.1,5.8,50,0.00,SCT,,0.00,571.0,WeatherDisplay:10.37,2013-05-26 13:08:00,
2013-05-26 09:13:00,56.5,38.1,30.19,WNW,302,5.7,5.8,50,0.00,FEW,,0.00,585.0,WeatherDisplay:10.37,2013-05-26 13:13:00,
2013-05-26 09:18:00,57.0,39.0,30.19,NW,310,6.1,10.5,51,0.00,FEW,,0.00,599.0,WeatherDisplay:10.37,2013-05-26 13:18:00,
2013-05-26 09:23:00,57.0,38.5,30.19,NNW,333,13.8,15.0,50,0.00,FEW,,0.00,615.0,WeatherDisplay:10.37,2013-05-26 13:23:00,
2013-05-26 09:28:00,57.0,37.5,30.19,NNW,346,6.8,13.8,48,0.00,FEW,,0.00,633.0,WeatherDisplay:10.37,2013-05-26 13:28:00,
2013-05-26 09:33:00,57.2,38.7,30.19,North,5,8.9,13.5,50,0.00,FEW,,0.00,645.0,WeatherDisplay:10.37,2013-05-26 13:33:00,
2013-05-26 09:38:00,57.2,37.1,30.19,NW,320,14.4,18.4,47,0.00,FEW,,0.00,657.0,WeatherDisplay:10.37,2013-05-26 13:38:00,
2013-05-26 09:43:00,57.3,38.8,30.19,WNW,291,7.5,13.8,50,0.00,FEW,,0.00,673.0,WeatherDisplay:10.37,2013-05-26 13:43:00,
2013-05-26 09:48:00,57.3,37.2,30.19,NNW,336,5.5,10.4,47,0.00,FEW,,0.00,687.0,WeatherDisplay:10.37,2013-05-26 13:48:00,
2013-05-26 09:53:00,57.6,38.0,30.19,NNW,328,9.3,16.1,48,0.00,FEW,,0.00,700.0,WeatherDisplay:10.37,2013-05-26 13:53:00,
2013-05-26 09:58:00,58.0,38.4,30.19,NW,317,5.8,10.4,48,0.00,FEW,,0.00,712.0,WeatherDisplay:10.37,2013-05-26 13:58:00,
2013-05-26 10:03:00,58.4,38.8,30.19,NNW,339,13.9,18.0,48,0.00,FEW,,0.00,726.0,WeatherDisplay:10.37,2013-05-26 14:03:00,
2013-05-26 10:08:00,58.3,37.6,30.19,North,9,8.4,16.1,46,0.00,FEW,,0.00,735.0,WeatherDisplay:10.37,2013-05-26 14:08:00,
2013-05-26 10:13:00,58.7,39.6,30.18,NNW,327,14.3,16.1,49,0.00,FEW,,0.00,752.0,WeatherDisplay:10.37,2013-05-26 14:13:00,
2013-05-26 10:18:00,58.6,36.7,30.18,North,351,11.3,16.1,44,0.00,FEW,,0.00,765.0,WeatherDisplay:10.37,2013-05-26 14:18:00,
2013-05-26 10:23:00,58.9,38.1,30.18,North,360,15.5,16.5,46,0.00,FEW,,0.00,773.0,WeatherDisplay:10.37,2013-05-26 14:23:00,
2013-05-26 10:28:00,58.6,37.3,30.18,North,350,14.8,16.5,45,0.00,FEW,,0.00,786.0,WeatherDisplay:10.37,2013-05-26 14:28:00,
2013-05-26 10:33:00,58.9,38.7,30.18,NW,319,8.9,20.7,47,0.00,FEW,,0.00,795.0,WeatherDisplay:10.37,2013-05-26 14:33:00,
2013-05-26 10:38:00,59.5,38.7,30.18,NNW,343,9.5,10.4,46,0.00,FEW,,0.00,807.0,WeatherDisplay:10.37,2013-05-26 14:38:00,
2013-05-26 10:43:00,59.8,39.5,30.17,WNW,290,12.6,13.8,47,0.00,FEW,,0.00,819.0,WeatherDisplay:10.37,2013-05-26 14:43:00,
2013-05-26 10:48:00,59.9,39.6,30.17,NNW,336,6.4,10.5,47,0.00,FEW,,0.00,824.0,WeatherDisplay:10.37,2013-05-26 14:48:00,
2013-05-26 10:53:00,60.2,39.3,30.17,WNW,299,9.1,15.0,46,0.00,FEW,,0.00,837.0,WeatherDisplay:10.37,2013-05-26 14:53:00,
2013-05-26 10:58:00,60.2,38.2,30.17,WNW,301,16.6,20.7,44,0.00,FEW,,0.00,847.0,WeatherDisplay:10.37,2013-05-26 14:58:00,
2013-05-26 11:03:00,60.2,37.0,30.17,NW,320,19.4,20.7,42,0.00,FEW,,0.00,856.0,WeatherDisplay:10.37,2013-05-26 15:03:00,
2013-05-26 11:08:00,60.9,41.1,30.17,WNW,298,9.9,10.5,48,0.00,FEW,,0.00,867.0,WeatherDisplay:10.37,2013-05-26 15:08:00,
2013-05-26 11:13:00,60.9,36.4,30.17,West,281,5.6,10.4,40,0.00,SCT,,0.00,868.0,WeatherDisplay:10.37,2013-05-26 15:13:00,
2013-05-26 11:18:00,61.0,38.3,30.18,NW,315,24.2,26.5,43,0.00,SCT,,0.00,881.0,WeatherDisplay:10.37,2013-05-26 15:18:00,
2013-05-26 11:23:00,60.4,37.8,30.18,NNW,337,18.4,18.4,43,0.00,SCT,,0.00,888.0,WeatherDisplay:10.37,2013-05-26 15:23:00,
2013-05-26 11:28:00,60.5,37.3,30.18,WNW,303,12.9,16.1,42,0.00,SCT,,0.00,895.0,WeatherDisplay:10.37,2013-05-26 15:28:00,
2013-05-26 11:33:00,61.2,39.7,30.18,NW,306,11.2,16.1,45,0.00,SCT,,0.00,904.0,WeatherDisplay:10.37,2013-05-26 15:33:00,
2013-05-26 11:38:00,61.6,40.0,30.18,NNW,338,9.7,15.0,45,0.00,SCT,,0.00,907.0,WeatherDisplay:10.37,2013-05-26 15:38:00,
2013-05-26 11:43:00,61.8,38.4,30.18,NW,325,9.5,9.5,42,0.00,SCT,,0.00,914.0,WeatherDisplay:10.37,2013-05-26 15:43:00,
2013-05-26 11:48:00,61.8,39.1,30.18,NW,313,17.7,21.0,43,0.00,SCT,,0.00,916.0,WeatherDisplay:10.37,2013-05-26 15:48:00,
2013-05-26 11:53:00,61.8,39.1,30.17,WNW,297,13.0,15.0,43,0.00,SCT,,0.00,921.0,WeatherDisplay:10.37,2013-05-26 15:53:00,
2013-05-26 11:58:00,62.1,37.5,30.17,NNW,336,8.6,18.4,40,0.00,SCT,,0.00,923.0,WeatherDisplay:10.37,2013-05-26 15:58:00,
2013-05-26 12:03:00,62.3,39.5,30.17,NNW,329,6.5,8.1,43,0.00,SCT,,0.00,932.0,WeatherDisplay:10.37,2013-05-26 16:03:00,
2013-05-26 12:08:00,62.4,39.6,30.17,WSW,257,6.4,13.8,43,0.00,SCT,,0.00,935.0,WeatherDisplay:10.37,2013-05-26 16:08:00,
2013-05-26 12:13:00,62.7,39.3,30.17,West,263,12.5,16.1,42,0.00,FEW,,0.00,942.0,WeatherDisplay:10.37,2013-05-26 16:13:00,
2013-05-26 12:18:00,62.9,40.0,30.17,NNW,334,11.5,18.4,43,0.00,FEW,,0.00,942.0,WeatherDisplay:10.37,2013-05-26 16:18:00,
2013-05-26 12:23:00,63.1,41.4,30.17,NW,317,5.0,9.2,45,0.00,FEW,,0.00,942.0,WeatherDisplay:10.37,2013-05-26 16:23:00,
2013-05-26 12:28:00,63.4,39.9,30.17,WNW,288,11.5,15.0,42,0.00,FEW,,0.00,951.0,WeatherDisplay:10.37,2013-05-26 16:28:00,
2013-05-26 12:33:00,63.2,39.1,30.17,NW,308,11.9,15.0,41,0.00,FEW,,0.00,954.0,WeatherDisplay:10.37,2013-05-26 16:33:00,
2013-05-26 12:38:00,63.4,38.0,30.17,WNW,292,9.3,10.4,39,0.00,FEW,,0.00,953.0,WeatherDisplay:10.37,2013-05-26 16:38:00,
2013-05-26 12:43:00,63.7,39.5,30.17,SW,227,7.8,10.4,41,0.00,FEW,,0.00,954.0,WeatherDisplay:10.37,2013-05-26 16:43:00,
2013-05-26 12:48:00,63.9,38.4,30.16,WNW,302,13.3,15.0,39,0.00,FEW,,0.00,960.0,WeatherDisplay:10.37,2013-05-26 16:48:00,
2013-05-26 12:53:00,64.2,41.8,30.16,North,360,3.9,9.2,44,0.00,FEW,,0.00,956.0,WeatherDisplay:10.37,2013-05-26 16:53:00,
2013-05-26 12:58:00,64.5,40.9,30.15,WNW,286,7.5,8.1,42,0.00,FEW,,0.00,962.0,WeatherDisplay:10.37,2013-05-26 16:58:00,
2013-05-26 13:03:00,65.0,41.3,30.15,North,355,10.0,13.5,42,0.00,FEW,,0.00,956.0,WeatherDisplay:10.37,2013-05-26 17:03:00,
2013-05-26 13:08:00,65.0,39.4,30.15,WNW,300,10.1,15.0,39,0.00,FEW,,0.00,962.0,WeatherDisplay:10.37,2013-05-26 17:08:00,
2013-05-26 13:13:00,65.2,39.6,30.15,NW,325,8.3,13.8,39,0.00,FEW,,0.00,958.0,WeatherDisplay:10.37,2013-05-26 17:13:00,
2013-05-26 13:18:00,65.5,43.0,30.14,NW,304,5.4,8.1,44,0.00,FEW,,0.00,954.0,WeatherDisplay:10.37,2013-05-26 17:18:00,
2013-05-26 13:23:00,65.6,40.6,30.14,West,265,4.6,5.8,40,0.00,FEW,,0.00,958.0,WeatherDisplay:10.37,2013-05-26 17:23:00,
2013-05-26 13:28:00,66.3,43.7,30.14,WNW,291,14.7,18.0,44,0.00,FEW,,0.00,956.0,WeatherDisplay:10.37,2013-05-26 17:28:00,
2013-05-26 13:33:00,66.6,41.5,30.14,NW,305,6.6,8.1,40,0.00,FEW,,0.00,956.0,WeatherDisplay:10.37,2013-05-26 17:33:00,
2013-05-26 13:38:00,66.6,38.8,30.13,NW,314,13.8,18.4,36,0.00,FEW,,0.00,954.0,WeatherDisplay:10.37,2013-05-26 17:38:00,
2013-05-26 13:43:00,66.6,38.1,30.13,NW,323,12.0,16.5,35,0.00,FEW,,0.00,954.0,WeatherDisplay:10.37,2013-05-26 17:43:00,
2013-05-26 13:48:00,66.8,38.3,30.13,SW,236,13.0,15.0,35,0.00,FEW,,0.00,947.0,WeatherDisplay:10.37,2013-05-26 17:48:00,
2013-05-26 13:53:00,66.9,36.8,30.12,NW,304,17.5,19.6,33,0.00,FEW,,0.00,946.0,WeatherDisplay:10.37,2013-05-26 17:53:00,
2013-05-26 13:58:00,67.3,37.2,30.12,NNW,327,17.9,19.6,33,0.00,FEW,,0.00,940.0,WeatherDisplay:10.37,2013-05-26 17:58:00,
2013-05-26 14:03:00,67.1,37.0,30.12,WNW,301,13.3,18.4,33,0.00,FEW,,0.00,933.0,WeatherDisplay:10.37,2013-05-26 18:03:00,
2013-05-26 14:08:00,67.4,38.8,30.12,West,273,7.2,8.1,35,0.00,FEW,,0.00,930.0,WeatherDisplay:10.37,2013-05-26 18:08:00,
2013-05-26 14:13:00,67.8,38.4,30.12,WNW,294,10.4,10.5,34,0.00,FEW,,0.00,925.0,WeatherDisplay:10.37,2013-05-26 18:13:00,
2013-05-26 14:18:00,68.1,39.4,30.12,WNW,291,12.1,15.0,35,0.00,FEW,,0.00,918.0,WeatherDisplay:10.37,2013-05-26 18:18:00,
2013-05-26 14:23:00,68.1,36.3,30.12,NW,315,8.5,10.4,31,0.00,FEW,,0.00,912.0,WeatherDisplay:10.37,2013-05-26 18:23:00,
2013-05-26 14:28:00,68.3,36.5,30.12,WNW,287,4.9,5.8,31,0.00,FEW,,0.00,909.0,WeatherDisplay:10.37,2013-05-26 18:28:00,
2013-05-26 14:33:00,68.4,37.4,30.12,West,271,17.7,21.0,32,0.00,FEW,,0.00,904.0,WeatherDisplay:10.37,2013-05-26 18:33:00,
2013-05-26 14:38:00,68.6,35.9,30.12,WNW,298,17.9,21.0,30,0.00,FEW,,0.00,896.0,WeatherDisplay:10.37,2013-05-26 18:38:00,
2013-05-26 14:43:00,68.4,35.7,30.12,WNW,300,17.4,17.4,30,0.00,FEW,,0.00,889.0,WeatherDisplay:10.37,2013-05-26 18:43:00,
2013-05-26 14:48:00,68.8,35.2,30.12,WNW,300,10.9,13.8,29,0.00,FEW,,0.00,882.0,WeatherDisplay:10.37,2013-05-26 18:48:00,
2013-05-26 14:53:00,69.3,39.7,30.11,WNW,284,9.4,13.5,34,0.00,FEW,,0.00,872.0,WeatherDisplay:10.37,2013-05-26 18:53:00,
2013-05-26 14:58:00,69.6,37.6,30.11,WNW,300,11.1,12.0,31,0.00,FEW,,0.00,865.0,WeatherDisplay:10.37,2013-05-26 18:58:00,
2013-05-26 15:03:00,69.9,37.0,30.11,NNW,338,11.5,13.8,30,0.00,FEW,,0.00,860.0,WeatherDisplay:10.37,2013-05-26 19:03:00,
2013-05-26 15:08:00,69.4,34.9,30.10,NW,317,9.8,13.8,28,0.00,FEW,,0.00,846.0,WeatherDisplay:10.37,2013-05-26 19:08:00,
2013-05-26 15:13:00,69.6,35.0,30.10,North,5,13.5,19.6,28,0.00,FEW,,0.00,842.0,WeatherDisplay:10.37,2013-05-26 19:13:00,
2013-05-26 15:18:00,69.6,34.1,30.10,North,350,19.9,21.0,27,0.00,FEW,,0.00,833.0,WeatherDisplay:10.37,2013-05-26 19:18:00,
2013-05-26 15:23:00,69.1,34.6,30.10,NW,323,20.6,20.6,28,0.00,FEW,,0.00,821.0,WeatherDisplay:10.37,2013-05-26 19:23:00,
2013-05-26 15:28:00,69.3,36.5,30.11,NW,323,13.8,19.6,30,0.00,FEW,,0.00,812.0,WeatherDisplay:10.37,2013-05-26 19:28:00,
2013-05-26 15:33:00,69.6,36.8,30.10,NW,313,8.7,13.5,30,0.00,FEW,,0.00,800.0,WeatherDisplay:10.37,2013-05-26 19:33:00,
2013-05-26 15:38:00,70.1,34.5,30.11,NNW,328,19.5,19.5,27,0.00,FEW,,0.00,789.0,WeatherDisplay:10.37,2013-05-26 19:38:00,
2013-05-26 15:43:00,70.3,35.6,30.11,NW,325,22.5,22.5,28,0.00,FEW,,0.00,779.0,WeatherDisplay:10.37,2013-05-26 19:43:00,
2013-05-26 15:48:00,69.8,35.2,30.11,NNW,327,18.0,21.0,28,0.00,FEW,,0.00,765.0,WeatherDisplay:10.37,2013-05-26 19:48:00,
2013-05-26 15:53:00,70.3,36.5,30.10,NNW,333,17.3,17.3,29,0.00,FEW,,0.00,751.0,WeatherDisplay:10.37,2013-05-26 19:53:00,
2013-05-26 15:58:00,70.1,37.2,30.10,NW,305,15.9,18.4,30,0.00,FEW,,0.00,744.0,WeatherDisplay:10.37,2013-05-26 19:58:00,
2013-05-26 16:03:00,70.4,36.6,30.10,NW,312,12.9,13.8,29,0.00,FEW,,0.00,729.0,WeatherDisplay:10.37,2013-05-26 20:03:00,
2013-05-26 16:08:00,70.8,36.1,30.10,NNW,332,14.9,16.1,28,0.00,FEW,,0.00,715.0,WeatherDisplay:10.37,2013-05-26 20:08:00,
2013-05-26 16:14:00,70.6,35.0,30.10,WNW,292,15.7,19.5,27,0.00,FEW,,0.00,705.0,WeatherDisplay:10.37,2013-05-26 20:14:00,
2013-05-26 16:19:00,70.6,35.0,30.10,NW,324,10.3,13.8,27,0.00,FEW,,0.00,693.0,WeatherDisplay:10.37,2013-05-26 20:19:00,
2013-05-26 16:24:00,70.6,35.9,30.10,NNW,328,10.1,16.1,28,0.00,FEW,,0.00,677.0,WeatherDisplay:10.37,2013-05-26 20:24:00,
2013-05-26 16:29:00,70.4,37.5,30.10,NNE,21,9.8,16.1,30,0.00,FEW,,0.00,661.0,WeatherDisplay:10.37,2013-05-26 20:29:00,
2013-05-26 16:34:00,70.4,36.6,30.10,North,5,13.5,15.0,29,0.00,FEW,,0.00,650.0,WeatherDisplay:10.37,2013-05-26 20:34:00,
2013-05-26 16:39:00,70.4,34.8,30.11,North,350,12.0,13.5,27,0.00,FEW,,0.00,636.0,WeatherDisplay:10.37,2013-05-26 20:39:00,
2013-05-26 16:44:00,70.8,36.1,30.10,North,360,17.8,18.0,28,0.00,FEW,,0.00,624.0,WeatherDisplay:10.37,2013-05-26 20:44:00,
2013-05-26 16:49:00,70.8,40.3,30.10,NNW,348,9.5,10.5,33,0.00,FEW,,0.00,608.0,WeatherDisplay:10.37,2013-05-26 20:49:00,
2013-05-26 16:54:00,70.4,35.7,30.10,North,350,9.8,15.0,28,0.00,FEW,,0.00,592.0,WeatherDisplay:10.37,2013-05-26 20:54:00,
2013-05-26 16:59:00,70.4,35.7,30.10,NE,38,17.1,17.1,28,0.00,FEW,,0.00,578.0,WeatherDisplay:10.37,2013-05-26 20:59:00,
2013-05-26 17:04:00,70.1,34.5,30.10,NNW,344,11.2,15.0,27,0.00,FEW,,0.00,563.0,WeatherDisplay:10.37,2013-05-26 21:04:00,
2013-05-26 17:09:00,70.1,37.2,30.10,West,269,12.2,16.1,30,0.00,FEW,,0.00,547.0,WeatherDisplay:10.37,2013-05-26 21:09:00,
2013-05-26 17:14:00,70.3,35.6,30.10,NNW,342,11.0,16.1,28,0.00,FEW,,0.00,531.0,WeatherDisplay:10.37,2013-05-26 21:14:00,
2013-05-26 17:19:00,70.3,35.6,30.10,NNE,19,13.3,19.6,28,0.00,FEW,,0.00,517.0,WeatherDisplay:10.37,2013-05-26 21:19:00,
2013-05-26 17:24:00,70.1,35.5,30.10,North,355,17.7,17.7,28,0.00,FEW,,0.00,499.0,WeatherDisplay:10.37,2013-05-26 21:24:00,
2013-05-26 17:29:00,69.9,37.9,30.10,NW,326,11.4,15.0,31,0.00,FEW,,0.00,487.0,WeatherDisplay:10.37,2013-05-26 21:29:00,
2013-05-26 17:34:00,70.1,36.3,30.10,WNW,300,10.1,16.1,29,0.00,FEW,,0.00,468.0,WeatherDisplay:10.37,2013-05-26 21:34:00,
2013-05-26 17:39:00,70.3,38.2,30.10,North,5,10.0,10.0,31,0.00,FEW,,0.00,455.0,WeatherDisplay:10.37,2013-05-26 21:39:00,
2013-05-26 17:44:00,70.4,36.6,30.10,NW,308,12.0,15.0,29,0.00,FEW,,0.00,438.0,WeatherDisplay:10.37,2013-05-26 21:44:00,
2013-05-26 17:49:00,70.4,36.6,30.10,WNW,296,15.8,19.5,29,0.00,FEW,,0.00,420.0,WeatherDisplay:10.37,2013-05-26 21:49:00,
2013-05-26 17:54:00,70.3,39.0,30.10,NNW,344,14.7,18.0,32,0.00,FEW,,0.00,406.0,WeatherDisplay:10.37,2013-05-26 21:54:00,
2013-05-26 17:59:00,69.9,36.2,30.10,North,355,7.7,10.4,29,0.00,FEW,,0.00,388.0,WeatherDisplay:10.37,2013-05-26 21:59:00,
2013-05-26 18:04:00,69.9,35.3,30.10,North,9,8.3,11.5,28,0.00,FEW,,0.00,373.0,WeatherDisplay:10.37,2013-05-26 22:04:00,
2013-05-26 18:09:00,69.6,35.9,30.10,NNW,346,15.8,22.5,29,0.00,FEW,,0.00,341.0,WeatherDisplay:10.37,2013-05-26 22:09:00,
2013-05-26 18:14:00,69.6,37.6,30.11,NNW,329,13.5,16.5,31,0.00,FEW,,0.00,345.0,WeatherDisplay:10.37,2013-05-26 22:14:00,
2013-05-26 18:19:00,69.6,37.6,30.11,NW,321,8.3,13.8,31,0.00,FEW,,0.00,323.0,WeatherDisplay:10.37,2013-05-26 22:19:00,
2013-05-26 18:24:00,69.4,34.9,30.10,North,355,10.6,15.0,28,0.00,FEW,,0.00,309.0,WeatherDisplay:10.37,2013-05-26 22:24:00,
2013-05-26 18:29:00,69.4,36.6,30.10,NNW,345,7.1,10.4,30,0.00,FEW,,0.00,295.0,WeatherDisplay:10.37,2013-05-26 22:29:00,
2013-05-26 18:34:00,69.3,35.7,30.10,NNW,340,13.0,18.4,29,0.00,FEW,,0.00,279.0,WeatherDisplay:10.37,2013-05-26 22:34:00,
2013-05-26 18:39:00,69.1,35.5,30.11,NNW,340,10.3,12.0,29,0.00,FEW,,0.00,248.0,WeatherDisplay:10.37,2013-05-26 22:39:00,
2013-05-26 18:44:00,69.1,36.3,30.11,NNW,340,8.5,10.4,30,0.00,FEW,,0.00,250.0,WeatherDisplay:10.37,2013-05-26 22:44:00,
2013-05-26 18:49:00,68.9,37.0,30.11,North,350,8.0,9.2,31,0.00,FEW,,0.00,229.0,WeatherDisplay:10.37,2013-05-26 22:49:00,
2013-05-26 18:54:00,68.8,36.9,30.11,NW,309,8.7,12.0,31,0.00,FEW,,0.00,216.0,WeatherDisplay:10.37,2013-05-26 22:54:00,
2013-05-26 18:59:00,68.6,38.3,30.11,NW,321,16.6,22.5,33,0.00,FEW,,0.00,202.0,WeatherDisplay:10.37,2013-05-26 22:59:00,
2013-05-26 19:04:00,68.3,36.5,30.10,NW,323,12.7,16.1,31,0.00,FEW,,0.00,178.0,WeatherDisplay:10.37,2013-05-26 23:04:00,
2013-05-26 19:09:00,68.1,36.3,30.10,North,355,13.9,16.5,31,0.00,FEW,,0.00,160.0,WeatherDisplay:10.37,2013-05-26 23:09:00,
2013-05-26 19:14:00,67.9,37.7,30.11,NW,326,6.1,10.5,33,0.00,FEW,,0.00,141.0,WeatherDisplay:10.37,2013-05-26 23:14:00,
2013-05-26 19:19:00,67.8,36.8,30.11,NNW,343,4.8,8.1,32,0.00,FEW,,0.00,125.0,WeatherDisplay:10.37,2013-05-26 23:19:00,
2013-05-26 19:24:00,67.4,37.3,30.11,NNW,344,9.7,16.5,33,0.00,FEW,,0.00,109.0,WeatherDisplay:10.37,2013-05-26 23:24:00,
2013-05-26 19:29:00,67.3,36.4,30.11,NW,316,7.7,8.1,32,0.00,FEW,,0.00,91.0,WeatherDisplay:10.37,2013-05-26 23:29:00,
2013-05-26 19:34:00,67.1,37.8,30.12,NNW,327,2.5,3.5,34,0.00,FEW,,0.00,77.0,WeatherDisplay:10.37,2013-05-26 23:34:00,
2013-05-26 19:39:00,66.8,38.3,30.11,NNW,328,3.1,4.6,35,0.00,FEW,,0.00,35.0,WeatherDisplay:10.37,2013-05-26 23:39:00,
2013-05-26 19:44:00,66.3,37.8,30.12,NW,316,4.0,5.8,35,0.00,FEW,,0.00,33.0,WeatherDisplay:10.37,2013-05-26 23:44:00,
2013-05-26 19:49:00,65.8,37.4,30.12,NW,316,0.1,3.5,35,0.00,FEW,,0.00,39.0,WeatherDisplay:10.37,2013-05-26 23:49:00,
2013-05-26 19:54:00,65.6,37.9,30.12,NW,308,5.8,9.0,36,0.00,FEW,,0.00,32.0,WeatherDisplay:10.37,2013-05-26 23:54:00,
2013-05-26 19:59:00,65.3,36.9,30.12,NW,322,2.9,9.2,35,0.00,FEW,,0.00,25.0,WeatherDisplay:10.37,2013-05-26 23:59:00,
2013-05-26 20:04:00,65.0,37.4,30.12,NW,321,0.8,3.5,36,0.00,FEW,,0.00,18.0,WeatherDisplay:10.37,2013-05-27 00:04:00,
2013-05-26 20:09:00,64.5,38.3,30.12,NW,321,0.1,3.5,38,0.00,FEW,,0.00,12.0,WeatherDisplay:10.37,2013-05-27 00:09:00,
2013-05-26 20:14:00,63.9,37.8,30.13,NW,321,0.0,0.0,38,0.00,FEW,,0.00,7.0,WeatherDisplay:10.37,2013-05-27 00:14:00,
2013-05-26 20:19:00,63.2,37.8,30.12,NW,321,0.0,0.0,39,0.00,FEW,,0.00,5.0,WeatherDisplay:10.37,2013-05-27 00:19:00,
2013-05-26 20:24:00,62.1,38.7,30.13,NW,321,0.0,0.0,42,0.00,FEW,,0.00,0.0,WeatherDisplay:10.37,2013-05-27 00:24:00,
2013-05-26 20:29:00,60.4,40.6,30.13,NW,321,0.0,0.0,48,0.00,FEW,,0.00,0.0,WeatherDisplay:10.37,2013-05-27 00:29:00,
2013-05-26 20:34:00,58.9,40.3,30.13,NW,321,0.0,0.0,50,0.00,FEW,,0.00,0.0,WeatherDisplay:10.37,2013-05-27 00:34:00,
2013-05-26 20:39:00,58.1,40.1,30.13,NW,321,0.0,0.0,51,0.00,FEW,,0.00,0.0,WeatherDisplay:10.37,2013-05-27 00:39:00,
2013-05-26 20:44:00,57.0,40.5,30.14,NW,321,0.0,0.0,54,0.00,FEW,,0.00,0.0,WeatherDisplay:10.37,2013-05-27 00:44:00,
2013-05-26 20:49:00,56.5,40.0,30.14,NW,321,0.0,0.0,54,0.00,FEW,,0.00,0.0,WeatherDisplay:10.37,2013-05-27 00:49:00,
2013-05-26 20:54:00,55.9,40.0,30.14,NW,321,0.2,0.0,55,0.00,FEW,,0.00,0.0,WeatherDisplay:10.37,2013-05-27 00:54:00,
2013-05-26 20:59:00,55.4,40.4,30.15,NW,321,0.0,0.0,57,0.00,FEW,,0.00,0.0,WeatherDisplay:10.37,2013-05-27 00:59:00,
2013-05-26 21:04:00,55.1,41.5,30.15,NW,321,0.0,0.0,60,0.00,FEW,,0.00,0.0,WeatherDisplay:10.37,2013-05-27 01:04:00,
2013-05-26 21:09:00,54.7,41.1,30.15,NW,321,0.0,0.0,60,0.00,FEW,,0.00,0.0,WeatherDisplay:10.37,2013-05-27 01:09:00,
2013-05-26 21:14:00,54.2,41.0,30.15,NW,321,0.0,0.0,61,0.00,FEW,,0.00,0.0,WeatherDisplay:10.37,2013-05-27 01:14:00,
2013-05-26 21:19:00,53.8,41.1,30.15,NW,321,0.0,0.0,62,0.00,FEW,,0.00,0.0,WeatherDisplay:10.37,2013-05-27 01:19:00,
2013-05-26 21:24:00,53.3,41.0,30.15,NW,321,0.0,0.0,63,0.00,FEW,,0.00,0.0,WeatherDisplay:10.37,2013-05-27 01:24:00,
2013-05-26 21:29:00,52.8,41.0,30.16,NW,321,0.0,0.0,64,0.00,FEW,,0.00,0.0,WeatherDisplay:10.37,2013-05-27 01:29:00,
2013-05-26 21:34:00,52.3,40.9,30.16,NW,321,0.0,0.0,65,0.00,FEW,,0.00,0.0,WeatherDisplay:10.37,2013-05-27 01:34:00,
2013-05-26 21:39:00,52.0,41.8,30.16,NW,321,0.0,0.0,68,0.00,FEW,,0.00,0.0,WeatherDisplay:10.37,2013-05-27 01:39:00,
2013-05-26 21:44:00,51.6,41.4,30.17,NW,321,0.0,0.0,68,0.00,FEW,,0.00,0.0,WeatherDisplay:10.37,2013-05-27 01:44:00,
2013-05-26 21:49:00,51.3,41.5,30.17,NW,321,0.0,0.0,69,0.00,FEW,,0.00,0.0,WeatherDisplay:10.37,2013-05-27 01:49:00,
2013-05-26 21:54:00,51.0,41.2,30.17,NW,321,0.0,0.0,69,0.00,FEW,,0.00,0.0,WeatherDisplay:10.37,2013-05-27 01:54:00,
2013-05-26 21:59:00,50.7,40.9,30.17,NW,321,0.0,0.0,69,0.00,FEW,,0.00,0.0,WeatherDisplay:10.37,2013-05-27 01:59:00,
2013-05-26 22:04:00,50.4,41.0,30.17,NW,321,0.0,0.0,70,0.00,FEW,,0.00,0.0,WeatherDisplay:10.37,2013-05-27 02:04:00,
2013-05-26 22:09:00,50.2,41.2,30.17,NW,321,0.0,0.0,71,0.00,FEW,,0.00,0.0,WeatherDisplay:10.37,2013-05-27 02:09:00,
2013-05-26 22:14:00,49.9,41.2,30.17,NW,321,0.0,0.0,72,0.00,FEW,,0.00,0.0,WeatherDisplay:10.37,2013-05-27 02:14:00,
2013-05-26 22:19:00,49.8,41.5,30.17,NW,321,0.0,0.0,73,0.00,FEW,,0.00,0.0,WeatherDisplay:10.37,2013-05-27 02:19:00,
2013-05-26 22:24:00,49.6,41.7,30.17,NW,321,0.0,0.0,74,0.00,FEW,,0.00,0.0,WeatherDisplay:10.37,2013-05-27 02:24:00,
2013-05-26 22:29:00,49.5,41.9,30.18,NW,321,0.0,0.0,75,0.00,FEW,,0.00,0.0,WeatherDisplay:10.37,2013-05-27 02:29:00,
2013-05-26 22:34:00,49.2,42.0,30.18,NW,321,0.0,0.0,76,0.00,FEW,,0.00,0.0,WeatherDisplay:10.37,2013-05-27 02:34:00,
2013-05-26 22:39:00,49.1,42.5,30.19,NW,321,0.0,0.0,78,0.00,FEW,,0.00,0.0,WeatherDisplay:10.37,2013-05-27 02:39:00,
2013-05-26 22:44:00,48.8,42.6,30.19,NW,321,0.0,0.0,79,0.00,FEW,,0.00,0.0,WeatherDisplay:10.37,2013-05-27 02:44:00,
2013-05-26 22:49:00,48.3,42.1,30.19,NW,321,0.0,0.0,79,0.00,FEW,,0.00,0.0,WeatherDisplay:10.37,2013-05-27 02:49:00,
2013-05-26 22:54:00,48.2,42.0,30.19,NW,321,0.0,0.0,79,0.00,FEW,,0.00,0.0,WeatherDisplay:10.37,2013-05-27 02:54:00,
2013-05-26 22:59:00,47.9,41.4,30.19,NW,321,0.0,0.0,78,0.00,FEW,,0.00,0.0,WeatherDisplay:10.37,2013-05-27 02:59:00,
2013-05-26 23:04:00,47.6,41.4,30.19,NW,321,0.0,0.0,79,0.00,CLR,,0.00,0.0,WeatherDisplay:10.37,2013-05-27 03:04:00,
2013-05-26 23:09:00,47.4,41.5,30.19,NW,321,0.0,0.0,80,0.00,CLR,,0.00,0.0,WeatherDisplay:10.37,2013-05-27 03:09:00,
2013-05-26 23:14:00,47.1,41.6,30.19,NW,321,0.0,0.0,81,0.00,CLR,,0.00,0.0,WeatherDisplay:10.37,2013-05-27 03:14:00,
2013-05-26 23:19:00,47.1,41.6,30.19,NW,321,0.0,0.0,81,0.00,CLR,,0.00,0.0,WeatherDisplay:10.37,2013-05-27 03:19:00,
2013-05-26 23:24:00,47.0,41.8,30.19,NW,321,0.0,0.0,82,0.00,CLR,,0.00,0.0,WeatherDisplay:10.37,2013-05-27 03:24:00,
2013-05-26 23:29:00,46.8,41.9,30.20,NW,321,0.0,0.0,83,0.00,CLR,,0.00,0.0,WeatherDisplay:10.37,2013-05-27 03:29:00,
2013-05-26 23:34:00,46.7,41.8,30.20,NW,321,0.0,0.0,83,0.00,CLR,,0.00,0.0,WeatherDisplay:10.37,2013-05-27 03:34:00,
2013-05-26 23:39:00,46.4,41.5,30.20,NW,321,0.0,0.0,83,0.00,CLR,,0.00,0.0,WeatherDisplay:10.37,2013-05-27 03:39:00,
2013-05-26 23:44:00,46.2,41.6,30.20,NW,321,0.0,0.0,84,0.00,CLR,,0.00,0.0,WeatherDisplay:10.37,2013-05-27 03:44:00,
2013-05-26 23:49:00,46.1,41.8,30.20,NW,321,0.0,0.0,85,0.00,CLR,,0.00,0.0,WeatherDisplay:10.37,2013-05-27 03:49:00,
2013-05-26 23:54:00,46.0,41.7,30.20,NW,321,0.0,0.0,85,0.00,CLR,,0.00,0.0,WeatherDisplay:10.37,2013-05-27 03:54:00,
2013-05-26 23:59:00,45.7,41.8,30.20,NW,321,0.0,0.0,86,0.00,CLR,,0.00,0.0,WeatherDisplay:10.37,2013-05-27 03:59:00,